Terminal Aerodrome Forecast
Issued by NWS

Home | Current Version | Previous Version | Text Only | Print | Product List | Glossary On
Versions: 1 2 3 4 5 6 7 8 9 10 11 12 13 14 15
000
FTUS45 KRIW 292323
TAFJAC
TAF
KJAC 292323Z 3000/3024 21010KT P6SM VCTS SCT060CB BKN090
     FM300100 19006KT P6SM VCSH SCT060 BKN080
     FM300500 18006KT P6SM BKN080
     FM301600 20012G18KT P6SM FEW060
     FM302100 25015G25KT P6SM SCT070
      AMD LTD TO CLD VIS AND WIND=

USA.gov is the U.S. government's official web portal to all federal, state and local government web resources and services.